[[{"header":{"parameterUnit":"m.s-1","parameterCategory":1,"la1":30.2991,"la2":30.254,"lo1":-89.0895,"lo2":-89.0444,"dy":0.0017,"dx":0.0017,"nx":28,"ny":28,"refTime":"2024-02-06T03:00:00:Z","depth":0,"parameterNumber":2,"parameterNumberName":"U-component_of_WINDS"},"data":[0,0,0,0,0,0,0,0,0,0,0,0,0,0,0,0,0,0,0,0,0,0,0,0,0,0,0,0,0,0,0,0,0,0,0,0,0,0,0,0,0,0,0,0,0,0,0,0,0,0,0,0,0,0,0,0,0,0,0.773,0.773,0,0.7717,0.7717,0.7717,0.7702,0.7702,0.7701,0.7701,0.7687,0.7687,0.7687,0,0,0,0,0,0,0,0,0,0,0,0,0,0.7741,0.7741,0.773,0.773,0.773,0.7717,0.7717,0.7717,0.7702,0.7702,0.7701,0.7701,0.7687,0.7687,0.7686,0,0,0,0,0,0,0,0,0,0,0,0,0,0.7733,0.7741,0.773,0.7721,0.772,0.7717,0.7717,0.7717,0.7702,0.7702,0.7701,0.7701,0.7687,0.7687,0.7686,0.7691,0,0,0.7686,0.7686,0,0,0,0,0,0,0,0,0.7734,0.7733,0.7722,0.7721,0.772,0.7711,0.7716,0.7708,0.7702,0.7709,0.7701,0.7701,0.7695,0.7694,0.7692,0.7691,0.769,0.7686,0.7685,0.7685,0.7685,0,0,0,0,0,0,0,0.7734,0.7733,0.7725,0.7722,0.7721,0.7717,0.7716,0.7714,0.7704,0.7708,0.7707,0.7706,0.7694,0.7693,0.7692,0.769,0.7686,0.7685,0.7685,0.7685,0.7692,0.7693,0,0,0,0,0,0,0.7736,0.7734,0.7725,0.7724,0.7726,0.7717,0.7715,0.7714,0.7704,0.7702,0.7706,0.7705,0.7693,0.7692,0.7691,0.7696,0.7685,0.7685,0.7685,0.7692,0.7692,0.7693,0,0,0,0,0,0,0.7737,0.7736,0.7726,0.7729,0.7727,0.7717,0.7716,0.7714,0.7712,0.7702,0.77,0.7706,0.7693,0.7692,0.7692,0.7696,0.7685,0.7685,0.7692,0.7692,0.7693,0.7707,0,0,0,0,0,0,0.7737,0.7736,0.7738,0.7729,0.7727,0.7726,0.7716,0.7714,0.7712,0.7711,0.7702,0.77,0.7693,0.7692,0.7691,0.7695,0.7685,0.7691,0.7692,0.7692,0.7706,0.7708,0.7709,0,0,0,0,0,0.7737,0.7742,0.7738,0.7737,0.7729,0.7727,0.7725,0.7717,0.7712,0.7714,0.7708,0.77,0.7696,0.7692,0.7691,0.7695,0.7691,0.7692,0.7692,0.7705,0.7707,0.7709,0,0,0,0,0,0,0.775,0.774,0.7736,0.7737,0.7733,0.7724,0.7726,0.772,0.7716,0.7715,0.7705,0.7703,0.7704,0.77,0.7696,0.77,0.7692,0.7693,0.7702,0.7704,0.7706,0.7707,0.7684,0,0,0,0,0,0.7754,0.7753,0.7744,0.7746,0.7744,0.7736,0.7734,0.7728,0.7723,0.7721,0.7715,0.771,0.7707,0.7706,0.7703,0.7706,0.7704,0.7708,0.771,0.7711,0.7711,0.7713,0.7715,0.7695,0.7695,0.7695,0,0,0.776,0.7754,0.7754,0.7749,0.7744,0.7744,0.7734,0.7733,0.7732,0.7721,0.772,0.7716,0.771,0.7711,0.7712,0.7708,0.7717,0.7712,0.7713,0.7713,0.7714,0.7716,0.7717,0.7696,0.7696,0.7696,0,0,0.777,0.7766,0.7768,0.7764,0.7759,0.7753,0.7753,0.7746,0.7742,0.7742,0.7734,0.7733,0.7728,0.7724,0.7722,0.7733,0.7726,0.7732,0.7741,0.7742,0.7744,0.7745,0.7749,0.775,0.7733,0.7733,0.7733,0,0.7778,0.7777,0.7769,0.7769,0.7767,0.7758,0.7759,0.7756,0.775,0.7748,0.7744,0.7739,0.7735,0.7735,0.7738,0.7736,0.7737,0.7733,0.7744,0.7746,0.7747,0.775,0.7752,0.7734,0.7734,0.7734,0.7734,0,0.7787,0.7787,0.7789,0.7783,0.7782,0.7782,0.7775,0.7774,0.7769,0.7764,0.7764,0.7758,0.7754,0.7754,0.7749,0.7754,0.7752,0.7746,0.7739,0.775,0.7753,0.7754,0.7735,0.7735,0.7734,0.7734,0,0,0.7804,0.7796,0.7796,0.7794,0.7788,0.7787,0.7788,0.7784,0.7784,0.778,0.778,0.7778,0.7773,0.777,0.7765,0.7766,0.7775,0.776,0.776,0.7763,0.7781,0.7785,0.7786,0.7771,0.7771,0.7772,0.7781,0,0.7813,0.7814,0.7808,0.781,0.7809,0.7801,0.7802,0.7798,0.7794,0.7792,0.7788,0.7786,0.778,0.7778,0.7779,0.7774,0.7779,0.7773,0.7771,0.7771,0.7772,0.7788,0.7792,0.7801,0.7783,0.7783,0.7783,0,0.7823,0.7821,0.7824,0.7818,0.7817,0.7818,0.7815,0.7814,0.781,0.7807,0.7804,0.7798,0.7799,0.7792,0.7793,0.7789,0.7788,0.7785,0.7786,0.7784,0.7777,0.7787,0.7804,0.7805,0.7785,0.7785,0.7785,0,0.7835,0.7833,0.7834,0.7832,0.7826,0.7827,0.7824,0.7819,0.7818,0.7816,0.7815,0.7812,0.781,0.7809,0.7802,0.7798,0.7803,0.7796,0.78,0.7801,0.7801,0.7801,0.7818,0.7802,0.7802,0.7802,0.7802,0,0.7845,0.7847,0.7839,0.784,0.7842,0.7835,0.7837,0.7833,0.783,0.783,0.7823,0.7823,0.7814,0.7814,0.7809,0.781,0.7809,0.7806,0.7805,0.7807,0.7807,0.7805,0.7804,0.7802,0.7802,0.7802,0.7802,0,0.7858,0.7853,0.7854,0.7848,0.7847,0.7848,0.7843,0.7844,0.784,0.784,0.7839,0.7833,0.7832,0.7825,0.7822,0.7819,0.7822,0.7819,0.7823,0.7822,0.7827,0.7826,0.7842,0.7844,0.7827,0.7828,0.7828,0,0.7865,0.7866,0.7861,0.786,0.7858,0.7858,0.7857,0.785,0.785,0.7846,0.7847,0.7845,0.7843,0.7842,0.7837,0.7835,0.7832,0.7838,0.7831,0.7833,0.7831,0.7831,0.7831,0.7839,0.7839,0.7839,0.7839,0,0.7876,0.7874,0.7873,0.7871,0.7871,0.7869,0.7867,0.7867,0.786,0.7859,0.7858,0.7857,0.7855,0.7853,0.7851,0.7848,0.7842,0.7842,0.7842,0.7843,0.7846,0.7844,0.7826,0.7841,0.7841,0.784,0.784,0.784,0.7886,0.7887,0.7884,0.7883,0.7881,0.7879,0.788,0.7876,0.7875,0.7873,0.787,0.7869,0.7866,0.7862,0.786,0.7859,0.7856,0.7857,0.7857,0.7857,0.7858,0.7847,0.7859,0.7859,0.7859,0.7859,0.7859,0,0.7897,0.7895,0.7894,0.7892,0.7892,0.7887,0.7885,0.7885,0.7885,0.7882,0.7881,0.788,0.7879,0.7875,0.7873,0.7874,0.7871,0.7873,0.7873,0.7872,0.7861,0.7861,0.7875,0.7875,0.7875,0.7875,0.7875,0.7875,0.7903,0.7904,0.7902,0.7902,0.79,0.79,0.7899,0.7898,0.7896,0.7895,0.7895,0.7892,0.7889,0.7887,0.7886,0.7885,0.7884,0.7887,0.7885,0.7875,0.7873,0.7871,0.7871,0.7887,0.7887,0.7896,0.7896,0.7896]},{"header":{"parameterUnit":"m.s-1","parameterCategory":1,"la1":30.2991,"la2":30.254,"lo1":-89.0895,"lo2":-89.0444,"dy":0.0017,"dx":0.0017,"nx":28,"ny":28,"refTime":"2024-02-06T03:00:00:Z","depth":0,"parameterNumber":3,"parameterNumberName":"V-component_of_WINDS"},"data":[0,0,0,0,0,0,0,0,0,0,0,0,0,0,0,0,0,0,0,0,0,0,0,0,0,0,0,0,0,0,0,0,0,0,0,0,0,0,0,0,0,0,0,0,0,0,0,0,0,0,0,0,0,0,0,0,0,0,-6.4497,-6.4499,0,-6.4706,-6.4708,-6.471,-6.4704,-6.4701,-6.4698,-6.4696,-6.4906,-6.4914,-6.4922,0,0,0,0,0,0,0,0,0,0,0,0,0,-6.4094,-6.4101,-6.4497,-6.45,-6.4502,-6.4705,-6.4708,-6.4711,-6.4704,-6.4701,-6.4698,-6.4694,-6.4903,-6.4913,-6.4923,0,0,0,0,0,0,0,0,0,0,0,0,0,-6.4282,-6.4104,-6.4497,-6.4524,-6.4528,-6.4705,-6.4708,-6.4712,-6.4705,-6.4701,-6.4697,-6.4693,-6.49,-6.4912,-6.4924,-6.5087,0,0,-6.4962,-6.4968,0,0,0,0,0,0,0,0,-6.4271,-6.4297,-6.4517,-6.4522,-6.4527,-6.4674,-6.4643,-6.4837,-6.4706,-6.4638,-6.4695,-6.4691,-6.4832,-6.485,-6.4898,-6.5097,-6.5106,-6.4963,-6.4971,-6.4976,-6.498,0,0,0,0,0,0,0,-6.4258,-6.4288,-6.4579,-6.452,-6.4527,-6.4525,-6.4547,-6.468,-6.4756,-6.4644,-6.4644,-6.4669,-6.4834,-6.4886,-6.4903,-6.5109,-6.4963,-6.4974,-6.4982,-6.4987,-6.5454,-6.5459,0,0,0,0,0,0,-6.424,-6.4277,-6.4573,-6.4586,-6.4386,-6.4536,-6.4561,-6.4632,-6.4755,-6.477,-6.4672,-6.4667,-6.4867,-6.4889,-6.4911,-6.5111,-6.4976,-6.4988,-6.4995,-6.5449,-6.5455,-6.5461,0,0,0,0,0,0,-6.4231,-6.4266,-6.4564,-6.4432,-6.4469,-6.4548,-6.4627,-6.4638,-6.469,-6.4777,-6.479,-6.4711,-6.4865,-6.4893,-6.5044,-6.5118,-6.4993,-6.5005,-6.5444,-6.5451,-6.5458,-6.5513,0,0,0,0,0,0,-6.422,-6.4263,-6.4325,-6.4433,-6.4477,-6.4695,-6.4632,-6.4645,-6.4712,-6.4708,-6.4817,-6.4831,-6.4864,-6.5026,-6.5056,-6.5133,-6.5014,-6.5437,-6.5447,-6.5456,-6.5504,-6.5521,-6.5535,0,0,0,0,0,-6.4205,-6.4331,-6.4328,-6.4364,-6.4556,-6.4699,-6.4724,-6.476,-6.4718,-6.4781,-6.4838,-6.4827,-6.5105,-6.5041,-6.5076,-6.5157,-6.5433,-6.5444,-6.5455,-6.5498,-6.5518,-6.5535,0,0,0,0,0,0,-6.4228,-6.4345,-6.4344,-6.4508,-6.4594,-6.4697,-6.4778,-6.4779,-6.4877,-6.4869,-6.4909,-6.4934,-6.5086,-6.5136,-6.5063,-6.5323,-6.5264,-6.5282,-6.5284,-6.5304,-6.5319,-6.5304,-6.5025,0,0,0,0,0,-6.4252,-6.4359,-6.4455,-6.4591,-6.4634,-6.4699,-6.4763,-6.4784,-6.4873,-6.4909,-6.4976,-6.5063,-6.517,-6.524,-6.5343,-6.5512,-6.5537,-6.5585,-6.5601,-6.5613,-6.5629,-6.5725,-6.5748,-6.5498,-6.5498,-6.5497,0,0,-6.4303,-6.4381,-6.4445,-6.4598,-6.4666,-6.4777,-6.473,-6.4847,-6.4929,-6.4926,-6.5074,-6.5126,-6.5226,-6.5388,-6.5462,-6.5435,-6.5704,-6.5627,-6.5636,-6.5646,-6.5739,-6.5762,-6.5783,-6.5505,-6.5504,-6.5503,0,0,-6.4452,-6.4521,-6.4643,-6.4714,-6.482,-6.4863,-6.4892,-6.4997,-6.5032,-6.5181,-6.5183,-6.5281,-6.5464,-6.5536,-6.5597,-6.5778,-6.5773,-6.581,-6.589,-6.5984,-6.6003,-6.6021,-6.6088,-6.6111,-6.5826,-6.5826,-6.5826,0,-6.4502,-6.4668,-6.4706,-6.4825,-6.4893,-6.4898,-6.5023,-6.509,-6.5223,-6.527,-6.5238,-6.5471,-6.5538,-6.5718,-6.5763,-6.5811,-6.5847,-6.5798,-6.5998,-6.6016,-6.6033,-6.6097,-6.6122,-6.583,-6.5829,-6.5829,-6.5829,0,-6.4725,-6.4841,-6.4927,-6.5058,-6.5136,-6.5257,-6.5314,-6.5388,-6.5403,-6.545,-6.5603,-6.5684,-6.5806,-6.585,-6.5864,-6.6033,-6.6013,-6.5989,-6.593,-6.606,-6.6121,-6.6146,-6.5836,-6.5834,-6.5833,-6.5832,0,0,-6.4893,-6.5046,-6.5077,-6.5138,-6.5257,-6.5347,-6.5469,-6.559,-6.5654,-6.5746,-6.5851,-6.6008,-6.5988,-6.6057,-6.608,-6.6161,-6.6303,-6.6128,-6.6131,-6.6159,-6.6497,-6.6515,-6.6543,-6.6301,-6.6305,-6.6309,-6.6489,0,-6.5056,-6.5274,-6.5314,-6.5505,-6.5613,-6.5621,-6.5728,-6.5813,-6.5861,-6.596,-6.6012,-6.6123,-6.6087,-6.6129,-6.621,-6.6268,-6.6372,-6.6256,-6.6399,-6.6404,-6.6375,-6.6575,-6.6594,-6.676,-6.6513,-6.6517,-6.652,0,-6.5274,-6.5376,-6.5578,-6.5686,-6.5733,-6.5828,-6.5944,-6.6038,-6.6135,-6.6164,-6.6244,-6.6258,-6.6387,-6.6323,-6.6501,-6.6422,-6.6483,-6.6521,-6.6528,-6.6543,-6.647,-6.6597,-6.6813,-6.6839,-6.6558,-6.6555,-6.6552,0,-6.5379,-6.5565,-6.5712,-6.5764,-6.5892,-6.596,-6.6016,-6.6109,-6.618,-6.6281,-6.6328,-6.6442,-6.6504,-6.6592,-6.6638,-6.6586,-6.6814,-6.6753,-6.6843,-6.6842,-6.6891,-6.6887,-6.7121,-6.6928,-6.6928,-6.6927,-6.6927,0,-6.5557,-6.5681,-6.5761,-6.5851,-6.5991,-6.6035,-6.6173,-6.6228,-6.6311,-6.6413,-6.6426,-6.6521,-6.6575,-6.6678,-6.6714,-6.6858,-6.6885,-6.6913,-6.6921,-6.6913,-6.691,-6.6954,-6.6944,-6.6934,-6.6932,-6.6931,-6.693,0,-6.5697,-6.5755,-6.5916,-6.6026,-6.6056,-6.6155,-6.6249,-6.6337,-6.6386,-6.6514,-6.6547,-6.6623,-6.6746,-6.68,-6.695,-6.6974,-6.7139,-6.7139,-6.7107,-6.711,-6.7198,-6.719,-6.747,-6.751,-6.7288,-6.729,-6.7292,0,-6.5807,-6.5904,-6.6025,-6.6095,-6.6154,-6.6266,-6.634,-6.6388,-6.6464,-6.6584,-6.6659,-6.6782,-6.6883,-6.7078,-6.7147,-6.7263,-6.7266,-6.7356,-6.7283,-6.7272,-6.727,-6.7264,-6.7275,-6.7369,-6.7371,-6.7373,-6.7375,0,-6.5998,-6.6023,-6.613,-6.6248,-6.6336,-6.643,-6.6523,-6.6579,-6.6642,-6.6727,-6.6854,-6.6933,-6.7088,-6.7211,-6.7332,-6.739,-6.7394,-6.7397,-6.7425,-6.7417,-6.7396,-6.7411,-6.7145,-6.7391,-6.7389,-6.7388,-6.7387,-6.7386,-6.6128,-6.6216,-6.6316,-6.6435,-6.651,-6.6598,-6.6687,-6.6748,-6.6855,-6.6987,-6.7008,-6.7144,-6.7241,-6.7405,-6.7468,-6.7575,-6.7553,-6.7591,-6.7602,-6.7611,-6.7617,-6.7379,-6.7596,-6.7596,-6.7596,-6.7595,-6.7595,0,-6.6321,-6.6387,-6.6496,-6.6627,-6.6722,-6.6719,-6.6822,-6.6901,-6.7021,-6.7112,-6.7213,-6.736,-6.748,-6.7559,-6.7681,-6.7752,-6.7757,-6.7782,-6.7778,-6.7792,-6.7629,-6.7594,-6.7776,-6.7776,-6.7776,-6.7776,-6.7776,-6.7776,-6.6433,-6.6582,-6.6619,-6.6806,-6.6871,-6.7005,-6.7065,-6.7146,-6.722,-6.7384,-6.7485,-6.7536,-6.7624,-6.7753,-6.7864,-6.7884,-6.7929,-6.7956,-6.7975,-6.7822,-6.7803,-6.7785,-6.7752,-6.7965,-6.7965,-6.813,-6.8131,-6.8132]}]]